FENGYUN 1C DEB

Satellite information

Favourite Embed

Satellite Type and Status

DEBRISIN ORBIT

Key statistics

Satellite FENGYUN 1C DEB at a glance.

Uptime

9714

Days in orbit

Revolutions

≈ 14.2

Per day

Orbit

SSO

Sun Synchronous Orbit

Inclination

99.1

Latest

Satellite identification and parameters

Extended collection of information and parameters for FENGYUN 1C DEB.

Object identification

Identified? True

Debris? True

Object name: FENGYUN 1C DEB

International designator: 1999-025EPS

Object number (NORAD): 38121

Object ID (CCSDS): 38121

Country: PEOPLES REPUBLIC OF CHINA (PRC)

Current information (Y/N): Y

RCS size: SMALL

Orbital parameters

Period: 101.283 minutes

Inclination: 99.1144 deg

SMA: 7197.541 km

Apoapsis: 968.154 km

Periapsis: 670.659 km

RAAN: 136.6331 deg

Eccentricy: 0.02066646

Argument of periapsis: 132.0758 deg

Mean anomaly: 229.8203 deg

Mean motion: 14.21760702 rev/day

Mean motion (dot): 0.00005193 rev/day2

B* drag term: 0.0019163195 1/REarth

Two-line elements (TLE)

Creation date: Dec. 11, 2025, 10:54 a.m.

Reference frame: TEME

Reference center: EARTH

Epoch: Dec. 11, 2025, 5:02 a.m. UTC

TLE line 0: 0 FENGYUN 1C DEB

TLE line 1: 1 38121U 99025EPS 25345.21007594 .00005193 00000-0 19163-2 0 9997

TLE line 2: 2 38121 99.1144 136.6331 0206665 132.0758 229.8203 14.21760702838981

Live tracking on map

Real-time ground track for satellite FENGYUN 1C DEB.

In-orbit conjunctions

A list of the most updated potential collisions computed for object FENGYUN 1C DEB.

Target Orbit TCA Probability of collision Miss distance Type
COSMOS 1244 LEO 2025-11-02 02:13:22 0.0001927825 163.0 (m) PAYLOAD
CZ-6A DEB LEO 2025-01-23 10:40:49 0.0001265662 453.0 (m) DEBRIS

Associated space launch

Chinese polar orbiting meteorological satellite

FENGYUN 1C DEB was lifted into orbit during the mission ‘Long March 4B | Feng Yun 1C’, on board a Long March 4B space rocket.

The launch took place on May 10, 1999, 1:33 a.m. from Launch Complex 7.

For more information about the launch, click the button.

Launch to space Long March 4B | Feng Yun 1C
Long March 4B | Feng Yun 1C

Agency: N/A

Status: Launch Successful

Launch date: May 10, 1999, 1:33 a.m. UTC

Rocket: Long March 4B

Launch pad: Launch Complex 7

Location: Taiyuan Satellite Launch Center, People's Republic of China

...

Latest news about this satellite

There are no fresh news available about this satellite. Check back as we update our databases every day.


Newsletter sign-up

Weekly statistics, charts and insights to help you stay on top of the space industry.